Location: Newark
(46.2358°N, 112.1211°W)
Time: 02:37:42
(UTC+00:00)

SO-50 - Visible Passes

Search period start: 11 July 2020 00:00
Search period end: 21 July 2020 00:00
Orbit: 611 x 675 km, 64.6° (Epoch: 10 July)

Date Brightness Start Highest point End Pass type
(mag) Time Alt. Az. Time Alt. Az. Time Alt. Az.
11 Jul ? 08:47:48 16° SE 08:49:10 18° ESE 08:52:22 10° ENE visible
11 Jul ? 10:25:26 16° SW 10:29:10 67° NW 10:33:49 10° NNE visible
12 Jul ? 09:12:08 29° SSE 09:13:50 40° ESE 09:18:13 10° NE visible
12 Jul ? 10:50:03 10° WSW 10:54:22 34° NW 10:58:37 10° NNE visible
13 Jul ? 07:58:48 12° ESE 07:58:57 12° ESE 08:00:55 10° E visible
13 Jul ? 09:36:25 31° SW 09:38:43 88° SE 09:43:25 10° NE visible
14 Jul ? 08:23:03 27° SE 08:23:32 28° ESE 08:27:32 10° ENE visible
14 Jul ? 10:00:40 18° WSW 10:03:49 45° NW 10:08:18 10° NNE visible
15 Jul ? 08:47:15 48° S 08:48:19 62° ESE 08:52:57 10° NE visible
15 Jul ? 10:25:14 10° W 10:29:09 25° NW 10:33:00 10° NNE visible
16 Jul ? 07:33:48 19° ESE 07:33:48 19° ESE 07:36:39 10° ENE visible
16 Jul ? 09:11:24 34° WSW 09:13:19 62° NW 09:17:58 10° NNE visible
16 Jul ? 10:51:52 10° WNW 10:54:41 15° NNW 10:57:27 10° N visible
17 Jul ? 07:57:55 43° ESE 07:57:59 43° ESE 08:02:24 10° NE visible
17 Jul ? 09:35:31 16° W 09:38:32 32° NW 09:42:44 10° NNE visible
17 Jul ? 11:19:32 10° NNW 11:20:25 10° NNW 11:21:18 10° N visible
18 Jul ? 06:44:23 12° E 06:44:23 12° E 06:45:23 10° E visible
18 Jul ? 08:21:59 59° SW 08:22:52 86° NW 08:27:34 10° NE visible
18 Jul ? 10:00:38 10° WNW 10:03:59 19° NNW 10:07:18 10° NNE visible
19 Jul ? 07:08:24 29° E 07:08:24 29° E 07:11:45 10° NE visible
19 Jul ? 08:46:00 27° W 08:48:00 42° NW 08:52:26 10° NNE visible
19 Jul ? 10:27:41 10° NW 10:29:38 12° NNW 10:31:34 10° N visible
20 Jul ? 07:32:22 67° SE 07:32:27 68° SE 07:37:07 10° NE visible
20 Jul ? 09:09:58 12° W 09:13:20 24° NW 09:17:05 10° NNE visible
